K5IUC Weather Reports


time (UTC)temp
C
wind
direction
speed
KPH
gust
KPH
rain 1hr
cm
rain 24hr
cm
rain mn
cm
humidity
%
barometer
mb
20260509185616 30 338 4.8 8.0 0.00 0.03 0.00 48 1008.4
20260509184616 30 270 3.2 4.8 0.00 0.03 0.00 48 1008.4
20260509183636 30 338 4.8 8.0 0.00 0.03 0.00 48 1008.6
20260509182616 30 338 6.4 9.7 0.00 0.03 0.00 50 1008.6
20260509181616 30 315 4.8 6.4 0.00 0.03 0.00 52 1008.7
20260509180615 30 23 4.8 6.4 0.00 0.03 0.00 51 1008.8
20260509175618 30 315 6.4 8.0 0.00 0.03 0.00 51 1008.9
20260509174617 29 315 4.8 8.0 0.00 0.03 0.00 53 1008.9
20260509173617 29 338 4.8 8.0 0.00 0.03 0.00 52 1009.1
20260509172618 28 315 8.0 12.9 0.00 0.03 0.00 53 1009.1
20260509171617 28 315 6.4 9.7 0.00 0.03 0.00 54 1009.1
20260509170617 28 338 6.4 8.0 0.00 0.03 0.00 55 1009.1
20260509165617 28 0 9.7 14.5 0.00 0.03 0.00 55 1009.2
20260509164617 28 315 8.0 11.3 0.00 0.03 0.00 57 1009.1
20260509163617 28 315 6.4 9.7 0.00 0.03 0.00 57 1009.2
20260509162617 28 315 11.3 17.7 0.00 0.03 0.00 58 1009.2
20260509161617 28 0 9.7 16.1 0.00 0.03 0.00 58 1009.3
20260509160618 27 338 1.6 4.8 0.00 0.03 0.00 59 1009.1
20260509155617 27 338 6.4 9.7 0.00 0.03 0.00 59 1009.3
20260509154617 27 23 9.7 11.3 0.00 0.03 0.00 60 1009.0
20260509153617 27 23 12.9 17.7 0.00 0.03 0.00 58 1008.9
20260509152617 27 338 9.7 12.9 0.00 0.03 0.00 59 1008.9
20260509151617 26 23 9.7 14.5 0.00 0.03 0.00 59 1008.8
20260509150617 26 23 8.0 14.5 0.00 0.03 0.00 63 1008.8
20260509145617 25 315 4.8 9.7 0.00 0.03 0.00 66 1008.8
20260509144637 25 315 9.7 14.5 0.00 0.03 0.00 68 1009.0
20260509143637 25 315 6.4 8.0 0.00 0.03 0.00 71 1008.9
20260509142617 25 0 4.8 8.0 0.00 0.03 0.00 71 1009.0
20260509141658 24 338 4.8 8.0 0.00 0.03 0.00 73 1008.9
20260509140617 23 338 8.0 12.9 0.00 0.03 0.00 74 1008.9
20260509135617 23 338 4.8 8.0 0.00 0.03 0.00 77 1008.7
20260509134617 23 315 8.0 11.3 0.00 0.03 0.00 78 1008.5
20260509133617 22 338 6.4 8.0 0.00 0.03 0.00 79 1008.5
20260509132617 22 338 6.4 8.0 0.00 0.03 0.00 80 1008.3
20260509131617 22 315 4.8 6.4 0.00 0.03 0.00 81 1008.0
20260509130637 21 315 8.0 11.3 0.00 0.03 0.00 80 1008.0
20260509125617 21 338 9.7 16.1 0.00 0.03 0.00 81 1008.1
20260509124617 21 338 6.4 9.7 0.00 0.03 0.00 82 1008.0
20260509123617 20 338 4.8 6.4 0.00 0.03 0.00 84 1007.8
20260509122617 20 270 1.6 3.2 0.00 0.03 0.00 85 1007.8
20260509121617 20 270 1.6 1.6 0.00 0.03 0.00 86 1007.8
20260509120617 20 0.0 1.6 0.00 0.03 0.00 87 1007.7
20260509115617 20 270 1.6 3.2 0.00 0.03 0.00 88 1007.6
20260509114617 20 0.0 0.0 0.00 0.03 0.00 87 1007.7
20260509113617 20 0.0 0.0 0.00 0.03 0.00 87 1007.5
20260509112617 21 0.0 0.0 0.00 0.03 0.00 87 1007.1
20260509111617 21 270 1.6 3.2 0.00 0.03 0.00 86 1007.1
20260509110616 21 0.0 1.6 0.00 0.03 0.00 86 1007.1
20260509105617 21 0.0 0.0 0.00 0.03 0.00 84 1006.8
20260509104617 22 0.0 0.0 0.00 0.03 0.00 83 1006.8
20260509103617 22 0.0 0.0 0.00 0.03 0.00 83 1006.8
20260509102617 22 315 1.6 3.2 0.00 0.03 0.00 83 1007.1
20260509101616 22 338 4.8 9.7 0.00 0.03 0.00 83 1007.0
20260509100617 22 338 6.4 14.5 0.00 0.03 0.00 85 1006.7
20260509095617 22 338 9.7 17.7 0.00 0.03 0.00 87 1006.5
20260509094617 21 338 12.9 16.1 0.00 0.03 0.00 89 1005.8
20260509093617 21 203 9.7 16.1 0.00 0.03 0.00 89 1004.1
20260509092616 21 225 8.0 11.3 0.00 0.03 0.00 89 1003.9
20260509091636 21 203 9.7 14.5 0.00 0.03 0.00 89 1003.9
20260509090617 21 203 12.9 22.5 0.00 0.03 0.00 89 1004.0
20260509085616 21 203 11.3 14.5 0.00 0.03 0.00 90 1004.2
20260509084637 21 203 8.0 11.3 0.00 0.03 0.00 90 1004.5
20260509083616 21 225 11.3 14.5 0.00 0.03 0.00 90 1004.8
20260509082636 21 180 12.9 17.7 0.00 0.03 0.00 90 1004.9
20260509081617 21 203 8.0 17.7 0.00 0.03 0.00 90 1005.6
20260509080637 21 180 8.0 11.3 0.00 0.03 0.00 90 1006.1
20260509075616 21 158 8.0 11.3 0.00 0.03 0.00 89 1006.5
20260509074617 21 225 6.4 9.7 0.00 0.03 0.00 88 1007.1
20260509073616 21 248 1.6 3.2 0.00 0.03 0.00 88 1007.7
20260509072616 21 248 6.4 8.0 0.00 0.03 0.00 88 1008.3
20260509071617 21 248 6.4 9.7 0.00 0.03 0.00 88 1008.6
20260509070617 21 293 6.4 9.7 0.00 0.03 0.00 89 1009.2
20260509065616 21 270 3.2 4.8 0.00 0.03 0.00 90 1009.3
20260509064616 21 338 1.6 3.2 0.00 0.03 0.00 90 1009.3
20260509063616 21 23 1.6 3.2 0.00 0.03 0.00 90 1009.1
20260509062616 21 0.0 0.0 0.00 0.03 0.00 90 1008.9
20260509061616 21 0.0 0.0 0.00 0.03 0.00 90 1009.3
20260509060616 21 0.0 0.0 0.00 0.03 0.00 89 1009.0
20260509055616 21 23 1.6 3.2 0.00 0.03 0.00 89 1009.0
20260509054637 21 23 3.2 4.8 0.00 0.03 0.00 89 1009.0
20260509053616 21 23 3.2 8.0 0.00 0.03 0.00 90 1008.9
20260509052616 21 0.0 0.0 0.00 0.03 0.00 90 1008.1
20260509051617 21 0.0 1.6 0.00 0.03 0.00 89 1008.1
20260509050616 21 0.0 0.0 0.00 0.03 0.00 89 1008.1
20260509045617 21 0.0 3.2 0.00 0.03 0.03 88 1007.8
20260509044617 21 0.0 1.6 0.00 0.03 0.03 88 1007.9
20260509043617 21 0.0 1.6 0.00 0.03 0.03 87 1007.9
20260509042637 22 0.0 1.6 0.00 0.03 0.03 87 1008.1
20260509041657 22 0.0 1.6 0.00 0.03 0.03 87 1008.2
20260509040617 22 0.0 0.0 0.00 0.03 0.03 87 1008.3
20260509035637 22 0.0 0.0 0.00 0.03 0.03 87 1008.0
20260509034617 22 158 3.2 6.4 0.00 0.03 0.03 86 1007.5
20260509033617 22 180 4.8 9.7 0.00 0.03 0.03 86 1007.3
20260509032617 22 158 6.4 8.0 0.00 0.03 0.03 85 1007.4
20260509031616 22 158 4.8 6.4 0.00 0.03 0.03 85 1007.1
20260509030616 22 158 4.8 6.4 0.00 0.03 0.03 85 1007.1
20260509025617 22 158 3.2 6.4 0.00 0.03 0.03 84 1007.0
20260509024616 22 158 3.2 4.8 0.00 0.03 0.03 84 1006.6
20260509023616 23 180 8.0 9.7 0.00 0.03 0.03 84 1006.4
20260509022617 23 158 3.2 6.4 0.00 0.03 0.03 83 1006.6
20260509021617 23 158 3.2 4.8 0.00 0.03 0.03 83 1006.7
20260509020637 23 135 1.6 3.2 0.00 0.03 0.03 82 1006.7
20260509015636 23 0.0 0.0 0.00 0.03 0.03 82 1006.7
20260509014617 23 113 1.6 3.2 0.00 0.03 0.03 82 1006.8
20260509013637 23 113 1.6 3.2 0.00 0.03 0.03 82 1006.6
20260509012616 23 113 1.6 1.6 0.00 0.03 0.03 81 1006.7
20260509011617 23 113 1.6 4.8 0.00 0.03 0.03 81 1006.3
20260509010617 23 158 1.6 3.2 0.00 0.03 0.03 81 1006.4
20260509005617 23 158 3.2 4.8 0.00 0.03 0.03 81 1006.3
20260509004617 23 225 3.2 3.2 0.00 0.03 0.03 80 1006.1
20260509003616 23 225 1.6 3.2 0.00 0.03 0.03 80 1006.1
20260509002616 23 0.0 1.6 0.00 0.03 0.03 80 1006.1
20260509001616 23 203 3.2 4.8 0.00 0.03 0.03 79 1006.3
20260509000616 23 203 1.6 4.8 0.00 0.03 0.03 79 1006.4
20260508235616 23 158 3.2 6.4 0.00 0.03 0.03 79 1006.4
20260508234616 23 180 1.6 3.2 0.00 0.03 0.03 78 1006.5
20260508233616 23 135 4.8 8.0 0.00 0.03 0.03 78 1006.4
20260508232637 23 225 4.8 8.0 0.00 0.03 0.03 78 1006.6
20260508231616 23 158 3.2 3.2 0.00 0.03 0.03 77 1006.6
20260508230616 23 158 6.4 9.7 0.00 0.03 0.03 77 1006.5
20260508225616 23 225 3.2 6.4 0.00 0.03 0.03 77 1006.7
20260508224616 23 180 6.4 9.7 0.00 0.03 0.03 76 1006.6
20260508223616 23 135 9.7 12.9 0.00 0.03 0.03 77 1006.5
20260508222656 23 203 6.4 9.7 0.00 0.03 0.03 77 1006.8
20260508221617 23 135 8.0 11.3 0.00 0.03 0.03 77 1006.9
20260508220616 22 180 6.4 11.3 0.00 0.03 0.03 79 1006.8
20260508215616 22 158 6.4 9.7 0.00 0.03 0.03 79 1007.1
20260508214616 22 203 6.4 8.0 0.00 0.03 0.03 80 1007.0
20260508213636 21 158 6.4 9.7 0.00 0.03 0.03 81 1007.1
20260508212616 21 158 4.8 6.4 0.00 0.03 0.03 86 1007.1
20260508211616 20 180 4.8 9.7 0.00 0.03 0.03 95 1007.4
20260508210636 19 180 4.8 6.4 0.00 0.03 0.03 95 1007.5
20260508205616 18 225 3.2 6.4 0.03 0.03 0.03 95 1007.7
20260508204616 18 225 4.8 6.4 0.03 0.03 0.03 95 1007.9
20260508203616 18 0 4.8 8.0 0.03 0.03 0.03 95 1007.8
20260508202616 18 23 4.8 8.0 0.03 0.03 0.03 94 1007.5
20260508201616 18 158 6.4 9.7 0.03 0.03 0.03 92 1007.4
20260508200616 21 158 8.0 9.7 0.03 0.03 0.03 85 1008.4
20260508195616 22 203 6.4 9.7 0.00 0.00 0.00 71 1009.1
20260508194616 22 225 6.4 12.9 0.00 0.00 0.00 71 1009.5
20260508193616 22 158 8.0 11.3 0.00 0.00 0.00 69 1009.2
20260508192616 22 225 8.0 11.3 0.00 0.00 0.00 68 1009.3
20260508191616 23 180 9.7 12.9 0.00 0.00 0.00 67 1009.3
20260508190616 22 225 8.0 14.5 0.00 0.00 0.00 68 1009.5